Location: Melbourne
(37.8170°S, 144.9670°E)
Time: 05:12:30
(UTC+10:00)

deb Explorer IX - All Passes

Search period start: 29 August 2015 00:00
Search period end: 08 September 2015 00:00
Orbit: 540 x 1154 km, 38.8° (Epoch: 26 August)

Date Brightness Start Highest point End Pass type
(mag) Time Alt. Az. Time Alt. Az. Time Alt. Az.
29 Aug - 10:01:43 10° NNE 10:03:43 11° NE 10:06:08 10° ENE daylight
29 Aug - 11:44:06 10° NW 11:50:58 38° NNE 11:57:27 10° E daylight
29 Aug - 13:31:16 10° WNW 13:38:44 80° NNE 13:45:18 10° E daylight
29 Aug - 15:19:45 10° W 15:26:48 82° S 15:32:47 10° E daylight
29 Aug - 17:08:14 10° WSW 17:14:37 67° NNW 17:19:54 10° ENE daylight
29 Aug - 18:57:16 10° W 19:01:31 21° NW 19:05:11 10° N visible
30 Aug - 09:45:17 10° NNE 09:48:17 13° NE 09:51:41 10° ENE daylight
30 Aug - 11:28:32 10° NW 11:35:34 42° NNE 11:42:15 10° E daylight
30 Aug - 13:15:51 10° WNW 13:23:23 83° NNE 13:30:07 10° E daylight
30 Aug - 15:04:20 10° W 15:11:31 83° S 15:17:38 10° E daylight
30 Aug - 16:52:50 10° WSW 16:59:20 64° NNW 17:04:44 10° ENE daylight
30 Aug - 18:42:03 10° W 18:46:12 20° NW 18:49:48 10° N visible
31 Aug - 09:29:10 10° NNE 09:32:52 15° NE 09:36:56 10° ENE daylight
31 Aug - 11:13:00 10° NW 11:20:09 45° NNE 11:27:02 10° E daylight
31 Aug - 13:00:26 10° WNW 13:08:02 86° NNE 13:14:54 10° E daylight
31 Aug - 14:48:56 10° W 14:56:14 84° S 15:02:29 10° E daylight
31 Aug - 16:37:26 10° WSW 16:44:03 60° NNW 16:49:34 10° NE daylight
31 Aug - 18:26:50 10° W 18:30:53 18° NW 18:34:23 10° N visible
01 Sep - 09:13:12 10° N 09:17:26 17° NE 09:22:01 10° ENE daylight
01 Sep - 10:57:30 10° NW 11:04:44 48° NNE 11:11:47 10° E daylight
01 Sep - 12:45:02 10° WNW 12:52:41 88° N 12:59:40 10° E daylight
01 Sep - 14:33:31 10° W 14:40:55 85° S 14:47:19 10° E daylight
01 Sep - 16:22:02 10° W 16:28:44 57° NNW 16:34:22 10° NE daylight
01 Sep - 18:11:38 10° W 18:15:33 17° NW 18:18:55 10° N daylight
02 Sep - 08:57:21 10° N 09:02:00 18° NE 09:07:00 10° E daylight
02 Sep - 10:42:01 10° NW 10:49:19 52° NNE 10:56:31 10° E daylight
02 Sep - 12:29:38 10° WNW 12:37:20 90° SSW 12:44:26 10° E daylight
02 Sep - 14:18:07 10° W 14:25:36 86° S 14:32:08 10° E daylight
02 Sep - 16:06:37 10° W 16:13:24 54° NNW 16:19:08 10° NE daylight
02 Sep - 17:56:28 10° W 18:00:12 16° NW 18:03:24 10° N daylight
03 Sep - 08:41:36 10° N 08:46:34 20° NE 08:51:54 10° E daylight
03 Sep - 10:26:34 10° NW 10:33:55 55° NNE 10:41:14 10° E daylight
03 Sep - 12:14:15 10° W 12:21:58 88° S 12:29:11 10° E daylight
03 Sep - 14:02:42 10° W 14:10:16 88° S 14:16:57 10° E daylight
03 Sep - 15:51:14 10° W 15:58:04 51° NNW 16:03:54 10° NE daylight
03 Sep - 17:41:21 10° WNW 17:44:50 15° NW 17:47:49 10° NNW daylight
04 Sep - 08:25:54 10° N 08:31:08 22° NE 08:36:45 10° E daylight
04 Sep - 10:11:08 10° NW 10:18:29 58° NNE 10:25:55 10° ESE daylight
04 Sep - 11:58:53 10° W 12:06:36 87° S 12:13:55 10° E daylight
04 Sep - 13:47:18 10° W 13:54:56 90° S 14:01:44 10° ENE daylight
04 Sep - 15:35:50 10° W 15:42:42 48° NNW 15:48:38 10° NE daylight
04 Sep - 17:26:17 10° WNW 17:29:28 14° NW 17:32:09 10° NNW daylight
05 Sep - 08:10:17 10° N 08:15:41 24° NE 08:21:33 10° E daylight
05 Sep - 09:55:45 10° NW 10:03:05 62° NNE 10:10:36 10° ESE daylight
05 Sep - 11:43:31 10° W 11:51:14 85° S 11:58:39 10° E daylight
05 Sep - 13:31:55 10° W 13:39:35 88° NNW 13:46:30 10° ENE daylight
05 Sep - 15:20:26 10° W 15:27:20 45° NNW 15:33:20 10° NE daylight
05 Sep - 17:11:19 10° WNW 17:14:05 12° NW 17:16:23 10° NNW daylight
06 Sep - 07:54:42 10° NNW 08:00:15 26° NE 08:06:19 10° E daylight
06 Sep - 09:40:23 10° WNW 09:47:40 65° NNE 09:55:15 10° ESE daylight
06 Sep - 11:28:11 10° W 11:35:52 84° S 11:43:22 10° E daylight
06 Sep - 13:16:31 10° W 13:24:13 86° NNW 13:31:16 10° ENE daylight
06 Sep - 15:05:03 10° W 15:11:57 43° NNW 15:18:01 10° NE daylight
06 Sep - 16:56:31 10° WNW 16:58:42 11° NW 17:00:26 10° NNW daylight
07 Sep - 07:39:11 10° NNW 07:44:49 28° NE 07:51:03 10° E daylight
07 Sep - 09:25:02 10° WNW 09:32:16 68° NNE 09:39:54 10° ESE daylight
07 Sep - 11:12:51 10° W 11:20:30 84° S 11:28:04 10° E daylight
07 Sep - 13:01:08 10° W 13:08:52 83° NNW 13:16:00 10° ENE daylight
07 Sep - 14:49:40 10° W 14:56:33 40° NNW 15:02:40 10° NE daylight
07 Sep - 16:42:12 10° NW 16:43:18 10° NW 16:43:58 10° NW daylight
